Weather History for Newark Heath, OH

Change the Weather History Date:

Tuesday, January 7, 2014

  Actual Average Record
Temperature  
Mean Temperature 1 °F -  
Max Temperature 9 °F 35 °F - (-1)
Min Temperature -7 °F 21 °F - (-1)
Degree Days  
Heating Degree Days 64    
Moisture  
Dew Point -9 °F    
Average Humidity 65    
Maximum Humidity 77    
Minimum Humidity 56    
Precipitation  
Precipitation 0.00 in - - ()
Sea Level Pressure  
Sea Level Pressure 30.40 in    
Wind  
Wind Speed 15 mph (SW)    
Max Wind Speed 21 mph    
Max Gust Speed 29 mph    
Visibility 7 miles    
Events      
Averages and records for this station are not official NWS values.
T = Trace of Precipitation, MM = Missing Value Source: NWS Daily Summary

Daily Weather History Graph

Daily Weather History Graph

Search for Another Location

Airport:

Trip Planner

Search our weather history database for the weather conditions in past years. The results will help you decide how hot, cold, wet, or windy it might be!

Date:

Astronomy

Jan. 07, 2014 Rise Set
Actual Time 7:51 AM EST 5:20 PM EST
Civil Twilight 7:21 AM EST 5:50 PM EST
Nautical Twilight 6:47 AM EST 6:24 PM EST
Astronomical Twilight 6:15 AM EST 6:57 PM EST
Moon 11:39 AM EST (1/7) No Moon Set
Length of Visible Light 10h 29m
Length of Day
9h 28m
Waxing Crescent, 45% of the Moon is Illuminated
Jan 7
Waxing Crescent
Jan 7
First Quarter
Jan 15
Full
Jan 24
Last Quarter
Jan 30
New

Hourly Weather History & Observations

Time (EST) Temp. Windchill Dew Point Humidity Pressure Visibility Wind Dir Wind Speed Gust Speed Precip Events Conditions
12:54 AM -7.1 °F -30.4 °F -17.0 °F 62% 30.35 in 4.0 mi West 18.4 mph 27.6 mph N/A   Haze
1:54 AM -7.1 °F -28.4 °F -15.0 °F 68% 30.37 in 3.0 mi WSW 15.0 mph - N/A   Haze
2:54 AM -7.1 °F -29.1 °F -15.0 °F 68% 30.39 in 5.0 mi West 16.1 mph - N/A   Haze
3:54 AM -7.1 °F -28.4 °F -15.0 °F 68% 30.38 in 5.0 mi WSW 15.0 mph - N/A   Haze
4:54 AM -7.1 °F -30.4 °F -15.0 °F 68% 30.37 in 9.0 mi WSW 18.4 mph 24.2 mph N/A   Overcast
5:54 AM -6.0 °F -27.7 °F -14.1 °F 68% 30.38 in 6.0 mi WSW 16.1 mph 24.2 mph N/A   Haze
6:54 AM -5.1 °F -25.9 °F -13.0 °F 69% 30.40 in 4.0 mi WSW 15.0 mph - N/A   Haze
7:43 AM -5.8 °F -26.8 °F -11.2 °F 77% 30.34 in 2.5 mi WSW 15.0 mph 20.7 mph N/A   Haze
7:52 AM -5.8 °F -26.0 °F -13.0 °F 71% 30.34 in 3.0 mi WSW 13.8 mph 21.9 mph N/A   Haze
7:54 AM -5.1 °F -25.1 °F -13.0 °F 69% 30.42 in 3.0 mi WSW 13.8 mph 21.9 mph N/A   Haze
8:10 AM -5.8 °F -26.8 °F -13.0 °F 71% 30.34 in 2.5 mi WSW 15.0 mph 21.9 mph N/A   Haze
8:28 AM -5.8 °F -26.0 °F -13.0 °F 71% 30.35 in 3.0 mi WSW 13.8 mph 20.7 mph N/A   Haze
8:54 AM -4.0 °F -25.2 °F -13.0 °F 65% 30.44 in 5.0 mi WSW 16.1 mph 23.0 mph N/A   Haze
9:22 AM -4.0 °F -21.2 °F -11.2 °F 71% 30.37 in 2.5 mi SW 10.4 mph 20.7 mph N/A   Haze
9:30 AM -2.2 °F -22.9 °F -11.2 °F 66% 30.38 in 3.0 mi WSW 16.1 mph 20.7 mph N/A   Haze
9:54 AM -2.9 °F -26.1 °F -11.9 °F 65% 30.47 in 4.0 mi WSW 20.7 mph 26.5 mph N/A   Haze
10:54 AM -0.9 °F -22.4 °F -11.0 °F 62% 30.49 in 5.0 mi SW 18.4 mph 28.8 mph 0.00 in   Haze
11:54 AM 1.0 °F -19.9 °F -9.9 °F 60% 30.45 in 9.0 mi WSW 18.4 mph 27.6 mph N/A   Overcast
12:54 PM 3.0 °F -16.1 °F -8.0 °F 60% 30.42 in 10.0 mi WSW 16.1 mph - N/A   Overcast
1:54 PM 3.9 °F -16.1 °F -7.1 °F 60% 30.42 in 10.0 mi WSW 18.4 mph 24.2 mph N/A   Overcast
2:17 PM 5.0 °F -11.6 °F -7.6 °F 56% 30.35 in 10.0 mi WSW 12.7 mph - N/A   Overcast
2:39 PM 5.0 °F -12.3 °F -5.8 °F 61% 30.35 in 10.0 mi WSW 13.8 mph - N/A   Overcast
2:54 PM 5.0 °F -13.0 °F -7.1 °F 58% 30.43 in 10.0 mi WSW 15.0 mph 25.3 mph N/A   Overcast
3:54 PM 6.1 °F -10.9 °F -4.0 °F 63% 30.42 in 9.0 mi SW 13.8 mph - N/A   Overcast
4:27 PM 6.8 °F -7.8 °F -2.2 °F 67% 30.36 in 10.0 mi SSW 10.4 mph 19.6 mph N/A   Mostly Cloudy
4:54 PM 6.1 °F -7.8 °F -4.0 °F 63% 30.42 in 10.0 mi SW 9.2 mph - N/A   Partly Cloudy
5:23 PM 6.8 °F -5.9 °F -4.0 °F 61% 30.35 in 10.0 mi SW 8.1 mph - N/A   Mostly Cloudy
5:33 PM 6.8 °F -7.8 °F -4.0 °F 61% 30.35 in 10.0 mi SW 10.4 mph - N/A   Scattered Clouds
5:54 PM 7.0 °F -4.5 °F -2.9 °F 64% 30.42 in 10.0 mi SW 6.9 mph - N/A   Clear
6:54 PM 8.1 °F -5.3 °F -2.9 °F 61% 30.42 in 10.0 mi SW 9.2 mph - N/A   Overcast
7:54 PM 8.1 °F -4.3 °F -2.0 °F 64% 30.44 in 10.0 mi SW 8.1 mph - N/A   Overcast
8:54 PM 9.0 °F -6.6 °F -0.9 °F 64% 30.44 in 10.0 mi SW 12.7 mph - N/A   Overcast
9:54 PM 9.0 °F -4.2 °F -0.0 °F 67% 30.45 in 10.0 mi SW 9.2 mph - N/A   Overcast
10:54 PM 9.0 °F -6.6 °F -0.0 °F 67% 30.45 in 10.0 mi SSW 12.7 mph - N/A   Overcast
11:54 PM 9.0 °F -3.2 °F -0.0 °F 67% 30.44 in 10.0 mi SSW 8.1 mph - N/A   Mostly Cloudy